Location: Indian Tree Observatory
(39.4030°N, 104.5929°W)
Time: 08:43:37
(UTC-07:00)

Envisat - Pass Details

Date: 20 November 2018
Orbit: 764 x 766 km, 98.2° (Epoch: 13 December)

Event Time Altitude Azimuth Distance (km) Brightness Sun altitude
Rises 20:24:28 0° 220° (SW) 3,217 6.5 -43.1°
Enters shadow 20:25:31 - 226° (SW) 2,923 6.4 -43.3°
Exits shadow 20:29:43 11° 266° (W) 2,234 5.9 -44.1°
Maximum altitude 20:30:08 11° 271° (W) 2,227 6.0 -44.2°
Drops below altitude 10° 20:31:32 10° 287° (WNW) 2,302 6.0 -44.5°
Sets 20:35:51 0° 323° (NW) 3,235 6.7 -45.3°
